Flag for U.S.A. Weather past 2 weeks in Fort Lauderdale, Florida, U.S.A.

Now
74 °F

Passing clouds.


Feels Like: 73 °F
Forecast: 75 / 83 °F
Wind: 12 mph from Southeast

Location: Fort Lauderdale Executive Airport


UV Index: 0 (Low)

Visibility: 10 mi


Pressure: 30.03 "Hg

Humidity: 88%

Dew point: 70 °F

Location of Fort LauderdaleLocation

Historic Weather in Fort Lauderdale

°F

Fort Lauderdale temperature yesterday

Maximum temperature yesterday: 79 °F (at 11:53 AM)
Minimum temperature yesterday: 73 °F (at 12:01 AM)
Average temperature yesterday: 75 °F

Past Weeks' High & Low Weather Summary

 TemperatureHumidityPressure
High91 °F (Apr 8, 2:53 PM)97% (Apr 18, 12:53 AM)30.27 "Hg (Apr 18, 12:53 AM)
Low64 °F (Apr 10, 5:53 AM)36% (Apr 10, 10:53 AM)29.76 "Hg (Apr 8, 4:53 PM)
Average76 °F71%30.04 "Hg
* Reported Apr 3 5:53 AM — Apr 18 5:53 AM, Fort Lauderdale, Weather by CustomWeather, © 2014

Note: Actual official high and low records may vary slightly from our data, if they occured in-between our weather recording intervals... More about our weather records

Advertising

Historic Weather Conditions — Data for Previous 24 hours

 ConditionsComfort  
Time TempWeatherWind HumidityBarometerVisibility
5:53 AM
Apr 18
73 °FPassing clouds.12 mph94%30.01 "Hg10 mi
4:53 AM72 °FPassing clouds.10 mph93%30.03 "Hg10 mi
4:04 AM72 °FPartly cloudy.3 mph97%30.03 "Hg10 mi
3:53 AM73 °FRain. Fog.5 mph97%30.03 "Hg5 mi
2:53 AM72 °FClear.3 mph97%30.05 "Hg10 mi
1:53 AM72 °FClear.7 mph93%30.07 "Hg10 mi
12:53 AM73 °FLight rain. Partly cloudy.7 mph97%30.09 "Hg10 mi
11:53 PM
Apr 17
75 °FPassing clouds.12 mph88%30.10 "Hg10 mi
10:53 PM74 °FPassing clouds.10 mph94%30.10 "Hg10 mi
9:53 PM75 °FLight rain. Partly cloudy.15 mph90%30.10 "Hg8 mi
8:53 PM75 °FPassing clouds.14 mph88%30.08 "Hg10 mi
7:53 PM75 °FBroken clouds.13 mph90%30.08 "Hg10 mi
6:53 PM75 °FBroken clouds.17 mph90%30.08 "Hg10 mi
5:53 PM75 °FLight rain. Mostly cloudy.18 mph90%30.07 "Hg10 mi
4:53 PM76 °FBroken clouds.12 mph88%30.09 "Hg10 mi
3:53 PM75 °FLight rain. Cloudy.9 mph90%30.09 "Hg10 mi
2:53 PM76 °FLight rain. Cloudy.9 mph88%30.10 "Hg10 mi
1:53 PM75 °FLight rain. Cloudy.N/A90%30.13 "Hg10 mi
12:53 PM73 °FLight rain. Fog.5 mph94%30.14 "Hg6 mi
11:53 AM79 °FBroken clouds.21 mph77%30.15 "Hg10 mi
10:53 AM78 °FBroken clouds.14 mph82%30.14 "Hg10 mi
9:53 AM78 °FScattered clouds.15 mph79%30.13 "Hg10 mi
8:53 AM77 °FScattered clouds.13 mph82%30.11 "Hg10 mi
7:53 AM75 °FPassing clouds.9 mph88%30.10 "Hg10 mi
Weather by CustomWeather, © 2014

See weather overview